Preview of NWS' New Version of Forecast
This preview is not operational and should not be used for support decisions.

Regional Weather Roundup (RWR)

Issued by National Weather Service (NWS)

                            
000
ASUS46 KPQR 240510
RWROR 

OREGON REGIONAL WEATHER ROUNDUP
NATIONAL WEATHER SERVICE PORTLAND OR
1000 PM PDT SUN JUN 23 2019

NOTE: "FAIR" INDICATES FEW OR NO CLOUDS BELOW 12,000 FEET WITH
NO SIGNIFICANT WEATHER AND/OR OBSTRUCTIONS TO VISIBILITY.

ORZ001>013-240600-
NORTHWEST OREGON

  
CITY           SKY/WX    TMP DP  RH WIND       PRES   REMARKS
ASTORIA        MOCLDY    56  49  77 NW7       30.18R                  
TILLAMOOK      PTCLDY    54  46  76 S3        30.19S                  
NEWPORT        CLEAR     52  50  93 N3        30.19S                  
PORTLAND       PTCLDY    59  47  64 NW9G16    30.15R                  
VANCOUVER WA   MOCLDY    59  46  62 NW6       30.15R                  
SCAPPOOSE      CLEAR     57  45  64 NW7       30.14S                  
HILLSBORO      CLEAR     56  45  66 N7        30.14R                  
AURORA         CLEAR     59  45  59 N9        30.14R                  
MCMINNVILLE    CLEAR     58  47  66 N6        30.13R                  
SALEM          CLEAR     59  48  67 NW8       30.12R                  
CORVALLIS      CLEAR     59  49  69 NW10      30.13R                  
EUGENE         PTCLDY    59  48  67 N6        30.11S                  
$$

ORZ021-028-240600-
SOUTHWEST OREGON

  
CITY           SKY/WX    TMP DP  RH WIND       PRES   REMARKS
NORTH BEND     MOCLDY    54  52  93 N13       30.17S                  
BROOKINGS      CLEAR     59  49  69 CALM      30.02R                  
ROSEBURG       CLEAR     68  45  43 N5        30.09R                  
SEXTON SUMMIT  CLEAR     56  44  64 N8        30.13S                  
GRANTS PASS    FAIR      70  45  40 N3        30.08R                  
MEDFORD        CLEAR     71  41  33 N7        30.04R                  
$$

ORZ014>016-041-240600-
COLUMBIA GORGE

  
CITY           SKY/WX    TMP DP  RH WIND       PRES   REMARKS
TROUTDALE      MOCLDY    59  47  64 VRB7      30.14R                  
HOOD RIVER     PTCLDY    61  45  55 NW7       30.08S                  
THE DALLES     PTCLDY    63  44  50 W13       30.04S                  
$$

ORZ029>031-041-044-049-050-061>064-502-503-505>511-240600-
EASTERN OREGON

  
CITY           SKY/WX    TMP DP  RH WIND       PRES   REMARKS
MADRAS         PTCLDY    54  41  62 NW9       30.11R                  
REDMOND        MOCLDY    59  38  45 N10       30.09R                  
BEND           MOCLDY    57  41  54 N6        30.09R                  
PRINEVILLE     MOCLDY    55  41  58 NW8       30.09R                  
KLAMATH FALLS  CLEAR     62  38  40 NW8       30.10S                  
LAKEVIEW       CLEAR     60  37  42 N12       30.11R                  
HERMISTON      PTCLDY    63  44  50 W14       29.99R                  
PENDLETON      MOCLDY    61  42  49 W21G30    29.99R                  
JOHN DAY       CLEAR     59  36  41 CALM      30.06R                  
MEACHAM        MOCLDY    53  39  59 VRB3      30.07R                  
LA GRANDE      PTCLDY    47  37  68 NE5       30.03R                  
BAKER CITY     PTCLDY    54  39  57 NW5       30.04R                  
BURNS          CLEAR     54  35  48 NW9       30.05R                  
ROME             N/A     64  29  26 NW7       30.02R                  
ONTARIO        CLEAR     61  42  49 NW7       29.98R                  
$$